ONEWEB-0354, 49217

Orbit data source: Space-Track

ONEWEB-0354, 49217 is a payload satellite owned by One Web (NAA) (UK) in LEO that was launched on Tue, 14 Sep 2021 UTC via a SOYUZ-2-1B launch vehicle from the Tyuratam Missile And Space Complex (TTMTR). Payload-class satellites include a variety of spacecraft equipped with specific instruments for various scientific and technological missions. These include communications satellites like Starlink; space stations such as the ISS; scientific satellites like the Hubble; Earth observation satellites from companies like Planet Labs, Umbra, and HawkEye 360; GPS; miniature CubeSats for education and research; and military/defense satellites.

Loading next visibility...
Identifier
49217, 2021-083AH
Orbit
LEO
Country
Flag of UKUK
Related business
Manufacturer
One Web
Mission
Operational Commercial Communications
Bus & Motor
ARROW, Unknown motor
Mass
148 kg wet, ~140 kg dry
Launch date (UTC)
2021-09-14 (4 years ago)
Launch vehicle
SOYUZ-2-1B
Launch site
Tyuratam Missile And Space Complex (TTMTR)
Object type
Payload
Rocket body
Debris
Shape & HBR
Trap Box + 2 Pan, 2.5 m
Radar Cross Section
2.032 m², Medium (>0.1 m² and < 1m²)

Expand to show TLE details & history
Last TLE update: 13 hours ago

TLE from 13 hours ago
0 ONEWEB-0354
1 49217U 21083AH  25250.25719815 -.00000218  00000-0 -56836-3 0  9993
2 49217  87.9293 330.8322 0002087 106.3741 253.7622 13.20771098199467
Epoch: 2025-09-07T06:10Z
TLE epoch observation values (Epoch: 2025-09-07T06:10:21.92Z)
Latitude
0.00001°
Longitude
-108.3384°
Altitude
1,185.121 km
Speed
7.261 km/s
True Right ascension
22h 03m 19s
True Declination
0° 00' 00"
Sunlit
Object was in full shadow at epoch
Visualization orbit readout
Latitude
Unknown
Longitude
Unknown
Altitude
Unknown
Speed
Unknown
Apparent Right ascension
Unknown
Apparent Declination
Unknown
Sunlit
N/A
Visualization observer readout
Local Sidereal Time
11:43:38
Azimuth
Unknown
Elevation
Unknown
Doppler factor
Unknown
Orbital elements
Apogee altitude
1,180.457 km
Perigee altitude
1,177.303 km
Semi-major axis
7,557.017 km
Eccentricity
0.00021
Inclination
87.9293°
RAAN
330.8322°
Arg. of periapsis
106.3741°
True anomaly
253.73924°
Mean anomaly
253.7622°
Eccentric anomaly
253.75072°
Mean motion
3.30383 °/min
Orbital period
108.96 mins
BSTAR
-0.00056836
Loading maneuver chart data...
Computing Atmospheric mass density...
Loading historical data...
Loading historical data...
Loading historical data...
Loading historical data...
Loading historical data...
Loading historical data...
Loading historical data...

Documentation

Showing up to 5 results
|